| time (UTC) | temp F | wind direction | speed MPH | gust MPH | rain 1hr in | rain 24hr in | rain mn in | humidity % | barometer mb |
| 20260510101503 | 65 | 350 | 6.0 | 12.0 | 0.00 | 0.00 | 0.00 | 60 | 1014.4 |
| 20260510101004 | 65 | 22 | 6.0 | 14.0 | 0.00 | 0.00 | 0.00 | 61 | 1014.5 |
| 20260510100504 | 65 | 20 | 7.0 | 14.0 | 0.00 | 0.00 | 0.00 | 61 | 1014.5 |
| 20260510095503 | 64 | 0 | 4.0 | 12.0 | 0.00 | 0.00 | 0.00 | 61 | 1014.6 |
| 20260510095004 | 64 | 23 | 7.0 | 15.0 | 0.00 | 0.00 | 0.00 | 61 | 1014.6 |
| 20260510094504 | 65 | 328 | 7.0 | 13.0 | 0.00 | 0.00 | 0.00 | 60 | 1014.6 |
| 20260510094004 | 64 | 8 | 6.0 | 13.0 | 0.00 | 0.00 | 0.00 | 61 | 1014.7 |
| 20260510093504 | 64 | 358 | 6.0 | 13.0 | 0.00 | 0.00 | 0.00 | 62 | 1014.8 |
| 20260510093004 | 63 | 324 | 6.0 | 15.0 | 0.00 | 0.00 | 0.00 | 63 | 1014.8 |
| 20260510092504 | 63 | 23 | 7.0 | 13.0 | 0.00 | 0.00 | 0.00 | 64 | 1014.9 |
| 20260510092003 | 63 | 24 | 6.0 | 14.0 | 0.00 | 0.00 | 0.00 | 64 | 1014.8 |
| 20260510091504 | 63 | 35 | 7.0 | 13.0 | 0.00 | 0.00 | 0.00 | 64 | 1014.9 |
| 20260510091003 | 63 | 8 | 5.0 | 13.0 | 0.00 | 0.00 | 0.00 | 64 | 1014.8 |
| 20260510090504 | 63 | 42 | 7.0 | 15.0 | 0.00 | 0.00 | 0.00 | 65 | 1014.9 |
| 20260510090003 | 63 | 31 | 9.0 | 12.0 | 0.00 | 0.00 | 0.00 | 65 | 1014.9 |
| 20260510085504 | 63 | 46 | 9.0 | 17.0 | 0.00 | 0.00 | 0.00 | 65 | 1014.9 |
| 20260510085004 | 63 | 37 | 6.0 | 14.0 | 0.00 | 0.00 | 0.00 | 67 | 1014.9 |
| 20260510084504 | 63 | 22 | 9.0 | 14.0 | 0.00 | 0.00 | 0.00 | 67 | 1014.9 |
| 20260510084003 | 62 | 338 | 6.0 | 12.0 | 0.00 | 0.00 | 0.00 | 68 | 1015.0 |
| 20260510083504 | 62 | 33 | 6.0 | 12.0 | 0.00 | 0.00 | 0.00 | 68 | 1015.0 |
| 20260510083003 | 62 | 23 | 5.0 | 12.0 | 0.00 | 0.00 | 0.00 | 69 | 1015.1 |
| 20260510082504 | 61 | 34 | 6.0 | 12.0 | 0.00 | 0.00 | 0.00 | 70 | 1015.1 |
| 20260510082004 | 61 | 20 | 7.0 | 15.0 | 0.00 | 0.00 | 0.00 | 70 | 1015.2 |
| 20260510081504 | 61 | 25 | 9.0 | 15.0 | 0.00 | 0.00 | 0.00 | 70 | 1015.2 |
| 20260510081004 | 61 | 26 | 7.0 | 13.0 | 0.00 | 0.00 | 0.00 | 70 | 1015.2 |
| 20260510080504 | 61 | 12 | 8.0 | 12.0 | 0.00 | 0.00 | 0.00 | 70 | 1015.3 |
| 20260510080004 | 61 | 0 | 5.0 | 9.0 | 0.00 | 0.00 | 0.00 | 72 | 1015.4 |
| 20260510075504 | 60 | 16 | 4.0 | 12.0 | 0.00 | 0.00 | 0.00 | 73 | 1015.4 |
| 20260510075003 | 60 | 41 | 6.0 | 12.0 | 0.00 | 0.00 | 0.00 | 74 | 1015.4 |
| 20260510074503 | 60 | 28 | 7.0 | 12.0 | 0.00 | 0.00 | 0.00 | 74 | 1015.4 |
| 20260510074004 | 60 | 22 | 9.0 | 13.0 | 0.00 | 0.00 | 0.00 | 74 | 1015.4 |
| 20260510073503 | 60 | 12 | 7.0 | 12.0 | 0.00 | 0.00 | 0.00 | 75 | 1015.4 |
| 20260510073004 | 59 | 30 | 4.0 | 12.0 | 0.00 | 0.00 | 0.00 | 76 | 1015.4 |
| 20260510072504 | 59 | 22 | 5.0 | 12.0 | 0.00 | 0.00 | 0.00 | 77 | 1015.5 |
| 20260510072003 | 59 | 27 | 7.0 | 12.0 | 0.00 | 0.00 | 0.00 | 76 | 1015.7 |
| 20260510071504 | 59 | 27 | 6.0 | 12.0 | 0.00 | 0.00 | 0.00 | 77 | 1015.6 |
| 20260510071003 | 58 | 17 | 7.0 | 12.0 | 0.00 | 0.00 | 0.00 | 77 | 1015.6 |
| 20260510070503 | 58 | 31 | 7.0 | 14.0 | 0.00 | 0.00 | 0.00 | 78 | 1015.6 |
| 20260510070004 | 58 | 25 | 7.0 | 12.0 | 0.00 | 0.00 | 0.00 | 79 | 1015.5 |
| 20260510065504 | 58 | 38 | 6.0 | 10.0 | 0.00 | 0.00 | 0.00 | 80 | 1015.6 |
| 20260510065004 | 58 | 47 | 6.0 | 9.0 | 0.00 | 0.00 | 0.00 | 81 | 1015.6 |
| 20260510064003 | 57 | 30 | 4.0 | 8.0 | 0.00 | 0.00 | 0.00 | 82 | 1015.6 |
| 20260510063503 | 57 | 32 | 3.0 | 8.0 | 0.00 | 0.00 | 0.00 | 83 | 1015.6 |
| 20260510063004 | 57 | 22 | 6.0 | 12.0 | 0.00 | 0.00 | 0.00 | 83 | 1015.6 |
| 20260510062504 | 56 | 28 | 6.0 | 12.0 | 0.00 | 0.00 | 0.00 | 84 | 1015.6 |
| 20260510062003 | 56 | 25 | 4.0 | 10.0 | 0.00 | 0.00 | 0.00 | 86 | 1015.7 |
| 20260510061003 | 55 | 28 | 5.0 | 10.0 | 0.00 | 0.00 | 0.00 | 88 | 1015.7 |
| 20260510060005 | 55 | 27 | 3.0 | 6.0 | 0.00 | 0.00 | 0.00 | 90 | 1015.7 |
| 20260510055504 | 54 | 38 | 3.0 | 8.0 | 0.00 | 0.00 | 0.00 | 90 | 1015.7 |
| 20260510055005 | 54 | 10 | 3.0 | 8.0 | 0.00 | 0.00 | 0.00 | 90 | 1015.7 |
| 20260510054504 | 54 | 20 | 4.0 | 8.0 | 0.00 | 0.00 | 0.00 | 90 | 1015.7 |
| 20260510054003 | 53 | 34 | 2.0 | 8.0 | 0.00 | 0.00 | 0.00 | 90 | 1015.7 |
| 20260510053504 | 53 | 33 | 2.0 | 7.0 | 0.00 | 0.00 | 0.00 | 91 | 1015.8 |
| 20260510053004 | 53 | 31 | 3.0 | 8.0 | 0.00 | 0.00 | 0.00 | 91 | 1015.7 |
| 20260510052504 | 53 | 6 | 4.0 | 8.0 | 0.00 | 0.00 | 0.00 | 91 | 1015.7 |
| 20260510052003 | 53 | 19 | 3.0 | 8.0 | 0.00 | 0.00 | 0.00 | 91 | 1015.7 |
| 20260510051504 | 53 | 22 | 3.0 | 8.0 | 0.00 | 0.00 | 0.00 | 91 | 1015.7 |
| 20260510051004 | 52 | 20 | 3.0 | 6.0 | 0.00 | 0.00 | 0.00 | 92 | 1015.6 |
| 20260510045503 | 52 | 17 | 3.0 | 7.0 | 0.00 | 0.00 | 0.00 | 92 | 1015.5 |
| 20260510045004 | 52 | 25 | 1.0 | 5.0 | 0.00 | 0.00 | 0.00 | 92 | 1015.5 |
| 20260510044504 | 52 | 22 | 4.0 | 8.0 | 0.00 | 0.00 | 0.00 | 92 | 1015.5 |
| 20260510044004 | 52 | 19 | 4.0 | 8.0 | 0.00 | 0.00 | 0.00 | 92 | 1015.4 |
| 20260510043004 | 52 | 32 | 3.0 | 8.0 | 0.00 | 0.00 | 0.00 | 92 | 1015.4 |
| 20260510042504 | 52 | 37 | 3.0 | 7.0 | 0.00 | 0.00 | 0.00 | 92 | 1015.4 |
| 20260510042003 | 52 | 34 | 3.0 | 9.0 | 0.00 | 0.00 | 0.00 | 92 | 1015.4 |
| 20260510041504 | 52 | 34 | 2.0 | 7.0 | 0.00 | 0.00 | 0.00 | 92 | 1015.4 |
| 20260510040504 | 52 | 34 | 2.0 | 6.0 | 0.00 | 0.00 | 0.00 | 92 | 1015.5 |
| 20260510040004 | 52 | 33 | 2.0 | 5.0 | 0.00 | 0.00 | 0.00 | 92 | 1015.4 |
| 20260510035503 | 52 | 33 | 2.0 | 5.0 | 0.00 | 0.00 | 0.00 | 92 | 1015.5 |
| 20260510035003 | 52 | 34 | 2.0 | 5.0 | 0.00 | 0.00 | 0.00 | 92 | 1015.6 |
| 20260510034504 | 52 | 34 | 3.0 | 5.0 | 0.00 | 0.00 | 0.00 | 92 | 1015.5 |
| 20260510034004 | 52 | 33 | 2.0 | 3.0 | 0.00 | 0.00 | 0.00 | 92 | 1015.5 |
| 20260510033505 | 52 | 34 | 2.0 | 5.0 | 0.00 | 0.00 | 0.00 | 92 | 1015.5 |
| 20260510033004 | 52 | 34 | 3.0 | 6.0 | 0.00 | 0.00 | 0.00 | 92 | 1015.5 |
| 20260510032504 | 52 | 28 | 3.0 | 7.0 | 0.00 | 0.00 | 0.00 | 92 | 1015.6 |
| 20260510032004 | 52 | 29 | 3.0 | 7.0 | 0.00 | 0.00 | 0.00 | 92 | 1015.5 |
| 20260510031504 | 52 | 33 | 2.0 | 6.0 | 0.00 | 0.00 | 0.00 | 92 | 1015.6 |
| 20260510031003 | 53 | 34 | 2.0 | 5.0 | 0.00 | 0.00 | 0.00 | 92 | 1015.6 |
| 20260510030003 | 53 | 36 | 2.0 | 5.0 | 0.00 | 0.00 | 0.00 | 92 | 1015.5 |
| 20260510025505 | 53 | 36 | 2.0 | 5.0 | 0.00 | 0.00 | 0.00 | 92 | 1015.6 |
| 20260510025004 | 53 | 31 | 2.0 | 5.0 | 0.00 | 0.00 | 0.00 | 92 | 1015.5 |
| 20260510024004 | 53 | 30 | 2.0 | 6.0 | 0.00 | 0.00 | 0.00 | 91 | 1015.6 |
| 20260510023004 | 53 | 30 | 3.0 | 7.0 | 0.00 | 0.00 | 0.00 | 91 | 1015.6 |
| 20260510022504 | 53 | 34 | 3.0 | 7.0 | 0.00 | 0.00 | 0.00 | 91 | 1015.6 |
| 20260510021504 | 53 | 36 | 2.0 | 5.0 | 0.00 | 0.00 | 0.00 | 91 | 1015.8 |
| 20260510021004 | 53 | 35 | 2.0 | 5.0 | 0.00 | 0.00 | 0.00 | 90 | 1015.8 |
| 20260510020504 | 53 | 35 | 1.0 | 3.0 | 0.00 | 0.00 | 0.00 | 90 | 1015.8 |
| 20260510020004 | 53 | 35 | 1.0 | 5.0 | 0.00 | 0.00 | 0.00 | 90 | 1015.8 |
| 20260510015504 | 53 | 35 | 3.0 | 5.0 | 0.00 | 0.00 | 0.00 | 90 | 1015.8 |
| 20260510015005 | 54 | 35 | 1.0 | 5.0 | 0.00 | 0.00 | 0.00 | 90 | 1015.8 |
| 20260510014504 | 54 | 35 | 2.0 | 3.0 | 0.00 | 0.00 | 0.00 | 89 | 1015.8 |
| 20260510014003 | 54 | 35 | 2.0 | 6.0 | 0.00 | 0.00 | 0.00 | 89 | 1015.8 |
| 20260510013503 | 54 | 36 | 3.0 | 5.0 | 0.00 | 0.00 | 0.00 | 89 | 1015.8 |
| 20260510013004 | 54 | 36 | 2.0 | 5.0 | 0.00 | 0.00 | 0.00 | 89 | 1015.8 |
| 20260510012504 | 54 | 36 | 2.0 | 7.0 | 0.00 | 0.00 | 0.00 | 89 | 1015.8 |
| 20260510011504 | 54 | 28 | 2.0 | 6.0 | 0.00 | 0.00 | 0.00 | 88 | 1015.9 |
| 20260510011004 | 54 | 29 | 2.0 | 6.0 | 0.00 | 0.00 | 0.00 | 88 | 1015.9 |
| 20260510010504 | 54 | 28 | 2.0 | 5.0 | 0.00 | 0.00 | 0.00 | 87 | 1015.9 |
| 20260510010003 | 54 | 29 | 1.0 | 3.0 | 0.00 | 0.00 | 0.00 | 87 | 1015.9 |
| 20260510005503 | 54 | 28 | 3.0 | 7.0 | 0.00 | 0.00 | 0.00 | 87 | 1015.9 |
| 20260510005004 | 54 | 26 | 3.0 | 6.0 | 0.00 | 0.00 | 0.00 | 86 | 1015.9 |
| 20260510004504 | 54 | 24 | 2.0 | 5.0 | 0.00 | 0.00 | 0.00 | 86 | 1016.0 |
| 20260510004003 | 54 | 24 | 2.0 | 6.0 | 0.00 | 0.00 | 0.00 | 86 | 1016.1 |
| 20260510003503 | 54 | 38 | 2.0 | 5.0 | 0.00 | 0.00 | 0.00 | 85 | 1016.2 |
| 20260510002504 | 54 | 39 | 1.0 | 3.0 | 0.00 | 0.00 | 0.00 | 84 | 1016.2 |
| 20260510001504 | 54 | 39 | 2.0 | 6.0 | 0.00 | 0.00 | 0.00 | 84 | 1016.1 |
| 20260510001003 | 54 | 40 | 1.0 | 5.0 | 0.00 | 0.00 | 0.00 | 84 | 1016.3 |
| 20260510000504 | 54 | 40 | 1.0 | 3.0 | 0.00 | 0.00 | 0.00 | 84 | 1016.3 |
| 20260510000004 | 54 | 40 | 1.0 | 5.0 | 0.00 | 0.00 | 0.00 | 83 | 1016.4 |
| 20260509235505 | 54 | 40 | 1.0 | 5.0 | 0.00 | 0.00 | 0.00 | 83 | 1016.5 |
| 20260509235004 | 54 | 40 | 2.0 | 6.0 | 0.00 | 0.00 | 0.00 | 83 | 1016.5 |
| 20260509234504 | 55 | 40 | 2.0 | 5.0 | 0.00 | 0.00 | 0.00 | 83 | 1016.5 |
| 20260509234004 | 55 | 40 | 1.0 | 3.0 | 0.00 | 0.00 | 0.00 | 82 | 1016.5 |
| 20260509233503 | 55 | 40 | 2.0 | 3.0 | 0.00 | 0.00 | 0.00 | 82 | 1016.5 |
| 20260509233004 | 55 | 41 | 2.0 | 3.0 | 0.00 | 0.00 | 0.00 | 81 | 1016.4 |
| 20260509232504 | 55 | 42 | 1.0 | 3.0 | 0.00 | 0.00 | 0.00 | 81 | 1016.5 |
| 20260509232004 | 55 | 42 | 1.0 | 3.0 | 0.00 | 0.00 | 0.00 | 80 | 1016.5 |
| 20260509231506 | 56 | 42 | 1.0 | 3.0 | 0.00 | 0.00 | 0.00 | 80 | 1016.5 |
| 20260509231004 | 56 | 42 | 0.0 | 3.0 | 0.00 | 0.00 | 0.00 | 79 | 1016.5 |
| 20260509230504 | 56 | 42 | 1.0 | 3.0 | 0.00 | 0.00 | 0.00 | 79 | 1016.5 |
| 20260509230004 | 56 | 42 | 1.0 | 5.0 | 0.00 | 0.00 | 0.00 | 78 | 1016.5 |
| 20260509225004 | 56 | 42 | 1.0 | 3.0 | 0.00 | 0.00 | 0.00 | 78 | 1016.5 |
| 20260509224504 | 57 | 42 | 1.0 | 3.0 | 0.00 | 0.00 | 0.00 | 77 | 1016.4 |
| 20260509224004 | 57 | 42 | 1.0 | 3.0 | 0.00 | 0.00 | 0.00 | 77 | 1016.5 |
| 20260509223505 | 57 | 42 | 1.0 | 3.0 | 0.00 | 0.00 | 0.00 | 76 | 1016.5 |
| 20260509223004 | 57 | 42 | 0.0 | 3.0 | 0.00 | 0.00 | 0.00 | 75 | 1016.4 |
| 20260509222504 | 57 | 42 | 1.0 | 3.0 | 0.00 | 0.00 | 0.00 | 75 | 1016.4 |
| 20260509222004 | 58 | 42 | 2.0 | 3.0 | 0.00 | 0.00 | 0.00 | 74 | 1016.5 |
| 20260509221505 | 58 | 42 | 1.0 | 3.0 | 0.00 | 0.00 | 0.00 | 73 | 1016.5 |
| 20260509221004 | 58 | 42 | 1.0 | 3.0 | 0.00 | 0.00 | 0.00 | 73 | 1016.4 |
| 20260509220504 | 58 | 42 | 2.0 | 3.0 | 0.00 | 0.00 | 0.00 | 73 | 1016.5 |
| 20260509215504 | 58 | 42 | 1.0 | 3.0 | 0.00 | 0.00 | 0.00 | 73 | 1016.6 |
| 20260509215005 | 58 | 42 | 1.0 | 3.0 | 0.00 | 0.00 | 0.00 | 72 | 1016.5 |
| 20260509214504 | 59 | 42 | 2.0 | 3.0 | 0.00 | 0.00 | 0.00 | 72 | 1016.4 |
| 20260509214004 | 59 | 42 | 2.0 | 3.0 | 0.00 | 0.00 | 0.00 | 72 | 1016.5 |
| 20260509213504 | 59 | 43 | 2.0 | 5.0 | 0.00 | 0.00 | 0.00 | 72 | 1016.5 |
| 20260509213003 | 59 | 33 | 2.0 | 3.0 | 0.00 | 0.00 | 0.00 | 72 | 1016.5 |
| 20260509212504 | 59 | 33 | 2.0 | 5.0 | 0.00 | 0.00 | 0.00 | 72 | 1016.4 |
| 20260509212003 | 59 | 33 | 3.0 | 5.0 | 0.00 | 0.00 | 0.00 | 72 | 1016.3 |
| 20260509211503 | 59 | 33 | 2.0 | 5.0 | 0.00 | 0.00 | 0.00 | 73 | 1016.3 |
| 20260509211003 | 59 | 31 | 2.0 | 5.0 | 0.00 | 0.00 | 0.00 | 73 | 1016.2 |
| 20260509210503 | 59 | 30 | 2.0 | 5.0 | 0.00 | 0.00 | 0.00 | 74 | 1016.2 |
| 20260509210004 | 59 | 32 | 2.0 | 5.0 | 0.00 | 0.00 | 0.00 | 75 | 1016.2 |
| 20260509205505 | 59 | 32 | 2.0 | 5.0 | 0.00 | 0.00 | 0.00 | 76 | 1016.3 |
| 20260509205004 | 59 | 31 | 2.0 | 5.0 | 0.00 | 0.00 | 0.00 | 76 | 1016.3 |
| 20260509204004 | 60 | 31 | 2.0 | 3.0 | 0.00 | 0.00 | 0.00 | 76 | 1016.3 |
| 20260509203503 | 60 | 31 | 2.0 | 6.0 | 0.00 | 0.00 | 0.00 | 76 | 1016.2 |
| 20260509203004 | 60 | 30 | 1.0 | 3.0 | 0.00 | 0.00 | 0.00 | 75 | 1016.4 |
| 20260509202505 | 60 | 30 | 1.0 | 3.0 | 0.00 | 0.00 | 0.00 | 75 | 1016.3 |
| 20260509202003 | 60 | 30 | 1.0 | 5.0 | 0.00 | 0.00 | 0.00 | 74 | 1016.4 |
| 20260509201504 | 61 | 30 | 1.0 | 3.0 | 0.00 | 0.00 | 0.00 | 74 | 1016.4 |
| 20260509201004 | 61 | 30 | 1.0 | 5.0 | 0.00 | 0.00 | 0.00 | 73 | 1016.3 |
| 20260509200504 | 61 | 30 | 1.0 | 3.0 | 0.00 | 0.00 | 0.00 | 73 | 1016.2 |
| 20260509200004 | 61 | 30 | 2.0 | 3.0 | 0.00 | 0.00 | 0.00 | 73 | 1016.2 |
| 20260509195503 | 61 | 30 | 1.0 | 3.0 | 0.00 | 0.00 | 0.00 | 72 | 1016.2 |
| 20260509191004 | 64 | 341 | 2.0 | 6.0 | 0.00 | 0.00 | 0.00 | 68 | 1016.1 |
| 20260509190504 | 64 | 341 | 3.0 | 7.0 | 0.00 | 0.00 | 0.00 | 67 | 1016.1 |
| 20260509185503 | 65 | 339 | 1.0 | 5.0 | 0.00 | 0.00 | 0.00 | 66 | 1016.0 |
| 20260509185004 | 65 | 338 | 3.0 | 8.0 | 0.00 | 0.00 | 0.00 | 65 | 1016.0 |
| 20260509184504 | 66 | 324 | 3.0 | 8.0 | 0.00 | 0.00 | 0.00 | 64 | 1016.0 |
| 20260509183504 | 66 | 355 | 3.0 | 7.0 | 0.00 | 0.00 | 0.00 | 61 | 1016.0 |
| 20260509183003 | 67 | 340 | 3.0 | 8.0 | 0.00 | 0.00 | 0.00 | 59 | 1016.0 |
| 20260509182504 | 67 | 329 | 2.0 | 7.0 | 0.00 | 0.00 | 0.00 | 59 | 1016.0 |
| 20260509182004 | 67 | 327 | 3.0 | 7.0 | 0.00 | 0.00 | 0.00 | 58 | 1016.0 |
| 20260509181504 | 67 | 329 | 3.0 | 7.0 | 0.00 | 0.00 | 0.00 | 58 | 1015.9 |
| 20260509181004 | 67 | 332 | 4.0 | 8.0 | 0.00 | 0.00 | 0.00 | 58 | 1015.9 |
| 20260509180503 | 68 | 324 | 4.0 | 9.0 | 0.00 | 0.00 | 0.00 | 58 | 1015.8 |
| 20260509180004 | 68 | 31 | 5.0 | 10.0 | 0.00 | 0.00 | 0.00 | 57 | 1015.8 |
| 20260509175503 | 68 | 328 | 5.0 | 9.0 | 0.00 | 0.00 | 0.00 | 57 | 1015.8 |
| 20260509175004 | 68 | 11 | 4.0 | 8.0 | 0.00 | 0.00 | 0.00 | 57 | 1015.7 |
| 20260509174503 | 68 | 358 | 5.0 | 8.0 | 0.00 | 0.00 | 0.00 | 56 | 1015.7 |
| 20260509174003 | 68 | 322 | 5.0 | 13.0 | 0.00 | 0.00 | 0.00 | 56 | 1015.7 |
| 20260509173504 | 69 | 334 | 6.0 | 12.0 | 0.00 | 0.00 | 0.00 | 56 | 1015.7 |
| 20260509173004 | 69 | 25 | 5.0 | 10.0 | 0.00 | 0.00 | 0.00 | 56 | 1015.6 |
| 20260509172504 | 69 | 12 | 5.0 | 10.0 | 0.00 | 0.00 | 0.00 | 55 | 1015.6 |
| 20260509172004 | 69 | 23 | 4.0 | 9.0 | 0.00 | 0.00 | 0.00 | 55 | 1015.6 |
| 20260509171503 | 69 | 325 | 4.0 | 10.0 | 0.00 | 0.00 | 0.00 | 55 | 1015.6 |
| 20260509170004 | 70 | 31 | 5.0 | 10.0 | 0.00 | 0.00 | 0.00 | 55 | 1015.8 |
| 20260509165003 | 70 | 353 | 5.0 | 12.0 | 0.00 | 0.00 | 0.00 | 54 | 1015.8 |
| 20260509164505 | 71 | 24 | 5.0 | 9.0 | 0.00 | 0.00 | 0.00 | 54 | 1015.7 |
| 20260509164003 | 71 | 333 | 5.0 | 12.0 | 0.00 | 0.00 | 0.00 | 54 | 1015.7 |
| 20260509163504 | 71 | 337 | 5.0 | 9.0 | 0.00 | 0.00 | 0.00 | 53 | 1015.7 |
| 20260509163005 | 72 | 24 | 4.0 | 7.0 | 0.00 | 0.00 | 0.00 | 52 | 1015.8 |
| 20260509162503 | 72 | 355 | 3.0 | 12.0 | 0.00 | 0.00 | 0.00 | 52 | 1015.7 |
| 20260509162004 | 72 | 357 | 3.0 | 10.0 | 0.00 | 0.00 | 0.00 | 53 | 1015.7 |
| 20260509161503 | 72 | 346 | 6.0 | 10.0 | 0.00 | 0.00 | 0.00 | 52 | 1015.8 |
| 20260509160003 | 73 | 9 | 3.0 | 12.0 | 0.00 | 0.00 | 0.00 | 51 | 1015.7 |
| 20260509155004 | 74 | 323 | 4.0 | 9.0 | 0.00 | 0.00 | 0.00 | 49 | 1015.7 |
| 20260509154504 | 74 | 30 | 3.0 | 6.0 | 0.00 | 0.00 | 0.00 | 48 | 1015.7 |
| 20260509154004 | 73 | 32 | 1.0 | 3.0 | 0.00 | 0.00 | 0.00 | 47 | 1015.8 |
| 20260509153504 | 73 | 32 | 2.0 | 6.0 | 0.00 | 0.00 | 0.00 | 47 | 1015.7 |
| 20260509153005 | 73 | 31 | 3.0 | 9.0 | 0.00 | 0.00 | 0.00 | 47 | 1015.7 |
| 20260509152504 | 73 | 38 | 4.0 | 6.0 | 0.00 | 0.00 | 0.00 | 47 | 1015.8 |
| 20260509152003 | 73 | 60 | 4.0 | 8.0 | 0.00 | 0.00 | 0.00 | 47 | 1015.8 |
| 20260509151004 | 72 | 15 | 3.0 | 7.0 | 0.00 | 0.00 | 0.00 | 49 | 1015.9 |
| 20260509145503 | 71 | 41 | 3.0 | 6.0 | 0.00 | 0.00 | 0.00 | 51 | 1015.9 |
| 20260509145003 | 71 | 28 | 2.0 | 5.0 | 0.00 | 0.00 | 0.00 | 52 | 1016.0 |
| 20260509144004 | 70 | 110 | 2.0 | 5.0 | 0.00 | 0.00 | 0.00 | 51 | 1016.1 |
| 20260509143504 | 71 | 61 | 2.0 | 5.0 | 0.00 | 0.00 | 0.00 | 51 | 1016.2 |
| 20260509143004 | 71 | 75 | 2.0 | 8.0 | 0.00 | 0.00 | 0.00 | 51 | 1016.2 |
| 20260509142504 | 71 | 25 | 3.0 | 7.0 | 0.00 | 0.00 | 0.00 | 51 | 1016.2 |
| 20260509142003 | 71 | 108 | 2.0 | 5.0 | 0.00 | 0.00 | 0.00 | 51 | 1016.2 |
| 20260509141503 | 71 | 50 | 2.0 | 5.0 | 0.00 | 0.00 | 0.00 | 51 | 1016.2 |
| 20260509141004 | 72 | 16 | 3.0 | 8.0 | 0.00 | 0.00 | 0.00 | 50 | 1016.2 |
| 20260509140504 | 73 | 66 | 3.0 | 5.0 | 0.00 | 0.00 | 0.00 | 50 | 1016.3 |
| 20260509140004 | 73 | 98 | 3.0 | 7.0 | 0.00 | 0.00 | 0.00 | 49 | 1016.3 |
| 20260509135504 | 72 | 37 | 2.0 | 6.0 | 0.00 | 0.00 | 0.00 | 50 | 1016.3 |
| 20260509135004 | 72 | 19 | 6.0 | 9.0 | 0.00 | 0.00 | 0.00 | 50 | 1016.4 |
| 20260509134503 | 73 | 30 | 5.0 | 8.0 | 0.00 | 0.00 | 0.00 | 49 | 1016.4 |
| 20260509134004 | 73 | 96 | 1.0 | 5.0 | 0.00 | 0.00 | 0.00 | 50 | 1016.4 |
| 20260509133503 | 72 | 22 | 1.0 | 6.0 | 0.00 | 0.00 | 0.00 | 51 | 1016.6 |
| 20260509133004 | 72 | 25 | 5.0 | 8.0 | 0.00 | 0.00 | 0.00 | 51 | 1016.6 |
| 20260509132504 | 72 | 34 | 3.0 | 9.0 | 0.00 | 0.00 | 0.00 | 51 | 1016.7 |
| 20260509132004 | 72 | 35 | 3.0 | 8.0 | 0.00 | 0.00 | 0.00 | 51 | 1016.8 |
| 20260509131504 | 72 | 43 | 4.0 | 9.0 | 0.00 | 0.00 | 0.00 | 51 | 1016.8 |
| 20260509131004 | 72 | 29 | 3.0 | 10.0 | 0.00 | 0.00 | 0.00 | 51 | 1016.8 |
| 20260509130503 | 71 | 7 | 3.0 | 8.0 | 0.00 | 0.00 | 0.00 | 52 | 1016.9 |
| 20260509130004 | 71 | 53 | 1.0 | 3.0 | 0.00 | 0.00 | 0.00 | 53 | 1017.0 |
| 20260509125503 | 70 | 52 | 0.0 | 6.0 | 0.00 | 0.00 | 0.00 | 52 | 1017.1 |
| 20260509125003 | 71 | 61 | 3.0 | 8.0 | 0.00 | 0.00 | 0.00 | 52 | 1017.1 |
| 20260509124504 | 72 | 70 | 5.0 | 10.0 | 0.00 | 0.00 | 0.00 | 50 | 1017.1 |
| 20260509124005 | 71 | 94 | 1.0 | 5.0 | 0.00 | 0.00 | 0.00 | 51 | 1017.2 |
| 20260509123004 | 72 | 96 | 1.0 | 5.0 | 0.00 | 0.00 | 0.00 | 50 | 1017.3 |
| 20260509122504 | 73 | 99 | 2.0 | 7.0 | 0.00 | 0.00 | 0.00 | 50 | 1017.3 |
| 20260509121504 | 72 | 47 | 3.0 | 7.0 | 0.00 | 0.00 | 0.00 | 51 | 1017.5 |
| 20260509121004 | 72 | 67 | 3.0 | 9.0 | 0.00 | 0.00 | 0.00 | 51 | 1017.5 |
| 20260509120504 | 72 | 80 | 1.0 | 5.0 | 0.00 | 0.00 | 0.00 | 52 | 1017.6 |
| 20260509120003 | 71 | 84 | 0.0 | 7.0 | 0.00 | 0.00 | 0.00 | 51 | 1017.6 |
| 20260509115503 | 72 | 59 | 5.0 | 8.0 | 0.00 | 0.00 | 0.00 | 51 | 1017.6 |
| 20260509115005 | 72 | 62 | 3.0 | 8.0 | 0.00 | 0.00 | 0.00 | 51 | 1017.6 |
| 20260509114504 | 72 | 51 | 2.0 | 8.0 | 0.00 | 0.00 | 0.00 | 52 | 1017.7 |
| 20260509114003 | 72 | 122 | 2.0 | 5.0 | 0.00 | 0.00 | 0.00 | 51 | 1017.7 |
| 20260509113004 | 72 | 48 | 3.0 | 7.0 | 0.00 | 0.00 | 0.00 | 53 | 1017.8 |
| 20260509112004 | 71 | 26 | 6.0 | 12.0 | 0.00 | 0.00 | 0.00 | 53 | 1017.9 |
| 20260509111504 | 70 | 82 | 0.0 | 5.0 | 0.00 | 0.00 | 0.00 | 53 | 1018.1 |
| 20260509111004 | 70 | 82 | 2.0 | 7.0 | 0.00 | 0.00 | 0.00 | 54 | 1018.1 |
| 20260509105503 | 71 | 81 | 5.0 | 10.0 | 0.00 | 0.00 | 0.00 | 52 | 1018.1 |
| 20260509105004 | 70 | 28 | 2.0 | 8.0 | 0.00 | 0.00 | 0.00 | 52 | 1018.2 |
| 20260509104504 | 70 | 162 | 1.0 | 6.0 | 0.00 | 0.00 | 0.00 | 53 | 1018.2 |
| 20260509104004 | 70 | 60 | 4.0 | 8.0 | 0.00 | 0.00 | 0.00 | 52 | 1018.2 |
| 20260509103504 | 70 | 27 | 3.0 | 9.0 | 0.00 | 0.00 | 0.00 | 52 | 1018.2 |
| 20260509103004 | 70 | 9 | 3.0 | 6.0 | 0.00 | 0.00 | 0.00 | 52 | 1018.3 |
| 20260509102504 | 70 | 33 | 5.0 | 10.0 | 0.00 | 0.00 | 0.00 | 53 | 1018.3 |
| 20260509102003 | 69 | 71 | 5.0 | 9.0 | 0.00 | 0.00 | 0.00 | 53 | 1018.3 |